Torna al catalogo

SL-12 R/B

AUX MOTOR

AttivoHEO
NORAD 15715·ROCKET BODY·🇷🇺 Russia

Lanciato May 17, 1985 da Baikonur Cosmodrome

Loading…

Prossimi Passaggi (prossime 24 ore)

TLE

AggiornatoSource: Space-Track

Epoca: Sep 14, 2026, 09:48 UTC

1 15715U 85037H   26257.40898054  .00007329  00000-0  10494-2 0  9993
2 15715  52.0235  37.2836 5004637 339.8415   5.8710  5.62480506627221

Traccia SL-12 R/B in tempo reale con AllMySat

Download on the App Store